Weather History for KSNC - July, 2013

Change the Weather History Date:

Wednesday, July 24, 2013

  Actual Average (KHVN) Record (KHVN)
Temperature  
Mean Temperature 76 °F -  
Max Temperature 82 °F 78 °F 96 °F (1972)
Min Temperature 68 °F 63 °F 39 °F (1998)
Cooling Degree Days 10    
Growing Degree Days 26 (Base 50)    
Moisture  
Dew Point 67 °F    
Average Humidity 77    
Maximum Humidity 100    
Minimum Humidity 54    
Precipitation  
Precipitation 0.00 in - - ()
Sea Level Pressure  
Sea Level Pressure 29.74 in    
Wind  
Wind Speed 5 mph (NNW)    
Max Wind Speed 10 mph    
Max Gust Speed 18 mph    
Visibility 9 miles    
Events      
Averages and records for this station are not official NWS values.
T = Trace of Precipitation, MM = Missing Value Source: NWS Daily Summary

Daily Weather History Graph

Daily Weather History Graph

Search for Another Location

Airport or City:

Trip Planner

Search our weather history database for the weather conditions in past years. The results will help you decide how hot, cold, wet, or windy it might be!

Date:

Astronomy

Jul. 24, 2013 Rise Set
Actual Time 5:37 AM EDT 8:14 PM EDT
Civil Twilight 5:05 AM EDT 8:46 PM EDT
Nautical Twilight 4:25 AM EDT 9:26 PM EDT
Astronomical Twilight 3:40 AM EDT 10:11 PM EDT
Moon 9:16 PM EDT 7:56 AM EDT
Length of Visible Light 15h 41m
Length of Day
14h 37m
Waning Gibbous, 95% of the Moon is Illuminated
Jul 24
Waning Gibbous
Jul 29
Last Quarter
Aug 6
New
Aug 14
First Quarter
Aug 20
Full

Hourly Weather History & Observations

Time (EDT) Temp. Heat Index Dew Point Humidity Pressure Visibility Wind Dir Wind Speed Gust Speed Precip Events Conditions
12:15 AM 71.6 °F - 71.6 °F 100% 29.63 in 5.0 mi West 5.8 mph - N/A   Overcast
12:35 AM 71.6 °F - 71.6 °F 100% 29.62 in 5.0 mi West 3.5 mph - N/A   Overcast
12:55 AM 71.6 °F - 71.6 °F 100% 29.63 in 1.0 mi West 4.6 mph - N/A   Overcast
1:15 AM 71.6 °F - 71.6 °F 100% 29.62 in 2.0 mi WNW 3.5 mph - N/A   Overcast
1:35 AM 71.6 °F - 71.6 °F 100% 29.63 in 2.5 mi NW 3.5 mph - N/A   Overcast
1:55 AM 71.6 °F - 71.6 °F 100% 29.62 in 5.0 mi WNW 3.5 mph - N/A   Overcast
2:15 AM 71.6 °F - 71.6 °F 100% 29.62 in 5.0 mi Calm Calm - N/A   Mostly Cloudy
2:35 AM 71.6 °F - 71.6 °F 100% 29.62 in 5.0 mi NW 3.5 mph - N/A   Overcast
2:55 AM 71.6 °F - 71.6 °F 100% 29.63 in 5.0 mi NW 3.5 mph - N/A   Scattered Clouds
3:15 AM 71.6 °F - 71.6 °F 100% 29.62 in 6.0 mi WNW 3.5 mph - N/A   Scattered Clouds
3:35 AM 71.6 °F - 71.6 °F 100% 29.63 in 7.0 mi Calm Calm - N/A   Mostly Cloudy
3:55 AM 71.6 °F - 71.6 °F 100% 29.62 in 6.0 mi Calm Calm - N/A   Mostly Cloudy
4:15 AM 71.6 °F - 71.6 °F 100% 29.62 in 8.0 mi Calm Calm - N/A   Clear
4:35 AM 71.6 °F - 71.6 °F 100% 29.63 in 9.0 mi Calm Calm - N/A   Partly Cloudy
4:55 AM 71.6 °F - 71.6 °F 100% 29.63 in 10.0 mi NW 3.5 mph - N/A   Partly Cloudy
5:15 AM 71.6 °F - 71.6 °F 100% 29.63 in 10.0 mi Calm Calm - N/A   Clear
5:35 AM 71.6 °F - 71.6 °F 100% 29.63 in 6.0 mi Calm Calm - N/A   Clear
5:55 AM 69.8 °F - 69.8 °F 100% 29.64 in 6.0 mi Calm Calm - N/A   Clear
6:15 AM 71.6 °F - 71.6 °F 100% 29.64 in 7.0 mi Calm Calm - N/A   Clear
6:35 AM 71.6 °F - 71.6 °F 100% 29.65 in 8.0 mi Calm Calm - N/A   Clear
6:55 AM 71.6 °F - 71.6 °F 100% 29.65 in 10.0 mi Calm Calm - N/A   Clear
7:15 AM 73.4 °F - 71.6 °F 94% 29.67 in 10.0 mi Calm Calm - N/A   Clear
7:35 AM 75.2 °F - 71.6 °F 89% 29.67 in 10.0 mi Calm Calm - N/A   Clear
7:55 AM 75.2 °F - 73.4 °F 94% 29.68 in 10.0 mi Calm Calm - N/A   Clear
8:15 AM 75.2 °F - 73.4 °F 94% 29.69 in 10.0 mi West 3.5 mph - N/A   Clear
8:35 AM 77.0 °F - 73.4 °F 89% 29.69 in 10.0 mi NNW 3.5 mph - N/A   Clear
8:55 AM 78.8 °F - 69.8 °F 74% 29.70 in 10.0 mi NNW 6.9 mph - N/A   Clear
9:15 AM 78.8 °F - 69.8 °F 74% 29.70 in 10.0 mi NNW 5.8 mph - N/A   Clear
9:35 AM 78.8 °F - 69.8 °F 74% 29.70 in 10.0 mi North 4.6 mph - N/A   Clear
9:55 AM 80.6 °F 83.9 °F 69.8 °F 70% 29.71 in 10.0 mi North 5.8 mph - N/A   Clear
10:15 AM 80.6 °F 83.9 °F 69.8 °F 70% 29.72 in 10.0 mi North 6.9 mph - N/A   Clear
10:35 AM 80.6 °F 83.9 °F 69.8 °F 70% 29.73 in 10.0 mi NNW 4.6 mph - N/A   Partly Cloudy
10:55 AM 80.6 °F 83.2 °F 68.0 °F 65% 29.73 in 10.0 mi NW 8.1 mph - N/A   Mostly Cloudy
11:15 AM 82.4 °F 86.3 °F 69.8 °F 66% 29.73 in 10.0 mi North 5.8 mph - N/A   Mostly Cloudy
11:35 AM 82.4 °F 85.4 °F 68.0 °F 62% 29.73 in 10.0 mi North 5.8 mph - N/A   Mostly Cloudy
11:55 AM 80.6 °F 83.9 °F 69.8 °F 70% 29.74 in 10.0 mi NW 4.6 mph - N/A   Mostly Cloudy
12:15 PM 82.4 °F 85.4 °F 68.0 °F 62% 29.74 in 10.0 mi NW 4.6 mph - N/A   Mostly Cloudy
12:35 PM 80.6 °F 83.2 °F 68.0 °F 65% 29.74 in 10.0 mi NNW 6.9 mph - N/A   Mostly Cloudy
12:55 PM 78.8 °F - 69.8 °F 74% 29.74 in 9.0 mi NNW 8.1 mph - N/A   Overcast
1:15 PM 80.6 °F 83.2 °F 68.0 °F 65% 29.74 in 10.0 mi NNW 10.4 mph - N/A   Mostly Cloudy
1:35 PM 80.6 °F 83.2 °F 68.0 °F 65% 29.74 in 10.0 mi North 8.1 mph - N/A   Mostly Cloudy
1:55 PM 80.6 °F 82.7 °F 66.2 °F 61% 29.75 in 10.0 mi NNW 10.4 mph - N/A   Scattered Clouds
2:15 PM 82.4 °F 84.6 °F 66.2 °F 58% 29.76 in 10.0 mi NNW 6.9 mph - N/A   Scattered Clouds
2:35 PM 82.4 °F 84.6 °F 66.2 °F 58% 29.76 in 10.0 mi NNW 8.1 mph - N/A   Partly Cloudy
2:55 PM 82.4 °F 84.6 °F 66.2 °F 58% 29.77 in 10.0 mi NNW 9.2 mph - N/A   Partly Cloudy
3:15 PM 82.4 °F 83.9 °F 64.4 °F 54% 29.77 in 10.0 mi NNW 8.1 mph - N/A   Partly Cloudy
3:35 PM 82.4 °F 83.9 °F 64.4 °F 54% 29.77 in 10.0 mi NNW 9.2 mph - N/A   Clear
3:55 PM 80.6 °F 82.3 °F 64.4 °F 58% 29.78 in 10.0 mi NNW 8.1 mph - N/A   Clear
4:15 PM 80.6 °F 82.3 °F 64.4 °F 58% 29.78 in 10.0 mi NNW 10.4 mph - N/A   Partly Cloudy
4:35 PM 78.8 °F - 64.4 °F 61% 29.78 in 10.0 mi NNW 9.2 mph - N/A   Mostly Cloudy
4:55 PM 80.6 °F 82.3 °F 64.4 °F 58% 29.79 in 10.0 mi NNW 8.1 mph - N/A   Mostly Cloudy
5:15 PM 77.0 °F - 64.4 °F 65% 29.79 in 10.0 mi NW 8.1 mph - N/A   Scattered Clouds
5:35 PM 75.2 °F - 64.4 °F 69% 29.79 in 10.0 mi NNW 6.9 mph - N/A   Clear
5:55 PM 78.8 °F - 64.4 °F 61% 29.79 in 10.0 mi NNW 9.2 mph - N/A   Clear
6:15 PM 77.0 °F - 64.4 °F 65% 29.80 in 10.0 mi NNW 4.6 mph - N/A   Clear
6:35 PM 77.0 °F - 64.4 °F 65% 29.81 in 10.0 mi NW 4.6 mph - N/A   Clear
6:55 PM 75.2 °F - 64.4 °F 69% 29.82 in 10.0 mi NNW 3.5 mph - N/A   Mostly Cloudy
7:15 PM 75.2 °F - 64.4 °F 69% 29.83 in 10.0 mi North 4.6 mph - N/A   Scattered Clouds
7:35 PM 75.2 °F - 64.4 °F 69% 29.85 in 10.0 mi NNW 4.6 mph - N/A   Scattered Clouds
7:55 PM 73.4 °F - 62.6 °F 69% 29.86 in 10.0 mi North 5.8 mph - N/A   Mostly Cloudy
8:15 PM 73.4 °F - 62.6 °F 69% 29.86 in 10.0 mi North 5.8 mph - N/A   Mostly Cloudy
8:35 PM 73.4 °F - 62.6 °F 69% 29.87 in 10.0 mi North 5.8 mph - N/A   Scattered Clouds
8:55 PM 71.6 °F - 62.6 °F 73% 29.88 in 10.0 mi NNW 6.9 mph - N/A   Mostly Cloudy
9:15 PM 71.6 °F - 60.8 °F 69% 29.89 in 10.0 mi NNW 6.9 mph - N/A   Mostly Cloudy
9:35 PM 71.6 °F - 57.2 °F 60% 29.90 in 10.0 mi North 8.1 mph - N/A   Scattered Clouds
9:55 PM 71.6 °F - 57.2 °F 60% 29.91 in 10.0 mi NNW 9.2 mph - N/A   Partly Cloudy
10:15 PM 69.8 °F - 55.4 °F 60% 29.91 in 10.0 mi North 9.2 mph 18.4 mph N/A   Clear
10:35 PM 69.8 °F - 55.4 °F 60% 29.92 in 10.0 mi North 10.4 mph 17.3 mph N/A   Mostly Cloudy
10:55 PM 69.8 °F - 55.4 °F 60% 29.92 in 10.0 mi North 10.4 mph - N/A   Mostly Cloudy
11:15 PM 69.8 °F - 55.4 °F 60% 29.92 in 10.0 mi North 9.2 mph 17.3 mph N/A   Mostly Cloudy
11:35 PM 69.8 °F - 55.4 °F 60% 29.93 in 10.0 mi North 8.1 mph - N/A   Mostly Cloudy
11:55 PM 68.0 °F - 55.4 °F 64% 29.94 in 10.0 mi North 8.1 mph - N/A   Overcast